Terug naar catalogus

CZ-3C DEB

LostGTO
NORAD 40827·DEBRIS·🇨🇳 China

Gelanceerd Oct 31, 2010 vanaf Xichang Satellite Launch Center

Loading…

TLE

VerouderdSource: Space-Track

Epoch: Aug 20, 2017, 01:56 UTC

1 40827U 10057AU  17232.08073512 -.00001120 +00000-0 -22242-1 0  9994
2 40827 020.3066 127.6434 7130138 315.4376 005.8443 02.26370379021094

Volg CZ-3C DEB in realtime met AllMySat

Download on the App Store